Weather History for Fort Rucker / Ozark, AL

Change the Weather History Date:

Friday, August 30, 2013

  Actual Average (KDHN) Record (KDHN)
Temperature  
Mean Temperature 82 °F 80 °F  
Max Temperature 93 °F 90 °F 101 °F (1948)
Min Temperature 71 °F 70 °F 33 °F (1996)
Cooling Degree Days 17 15  
Month to date cooling degree days 485  
Year to date cooling degree days 1866  
Since 1 June cooling degree days 1453  
Growing Degree Days 32 (Base 50)    
Moisture  
Dew Point 73 °F    
Average Humidity 83    
Maximum Humidity 97    
Minimum Humidity 50    
Precipitation  
Precipitation 1.28 in 0.12 in 2.08 in (1950)
Month to date precipitation 4.36  
Year to date precipitation 38.27  
Sea Level Pressure  
Sea Level Pressure 29.93 in    
Wind  
Wind Speed 3 mph (NW)    
Max Wind Speed 26 mph    
Max Gust Speed 51 mph    
Visibility 6 miles    
Events Fog , Rain , Thunderstorm    
T = Trace of Precipitation, MM = Missing Value Source: NWS Daily Summary

Daily Weather History Graph

Daily Weather History Graph

Search for Another Location

Airport:

Trip Planner

Search our weather history database for the weather conditions in past years. The results will help you decide how hot, cold, wet, or windy it might be!

Date:

Astronomy

Aug. 30, 2013 Rise Set
Actual Time 6:17 AM CDT 7:08 PM CDT
Civil Twilight 5:53 AM CDT 7:33 PM CDT
Nautical Twilight 5:23 AM CDT 8:02 PM CDT
Astronomical Twilight 4:53 AM CDT 8:32 PM CDT
Moon 1:07 AM CDT (8/30) 3:12 PM CDT (8/30)
Length of Visible Light 13h 40m
Length of Day
12h 50m
Waning Crescent, 29% of the Moon is Illuminated
Aug 30
Waning Crescent
Sep 5
New
Sep 12
First Quarter
Sep 19
Full
Sep 26
Last Quarter

Hourly Weather History & Observations

Time (CDT) Temp. Heat Index Dew Point Humidity Pressure Visibility Wind Dir Wind Speed Gust Speed Precip Events Conditions
12:53 AM 73.0 °F - 72.0 °F 96% 29.96 in 3.0 mi Calm Calm - N/A   Clear
1:53 AM 75.9 °F - 72.0 °F 87% 29.96 in 8.0 mi Calm Calm - N/A   Clear
2:53 AM 73.0 °F - 71.1 °F 93% 29.95 in 4.0 mi Calm Calm - N/A   Clear
3:53 AM 72.0 °F - 70.0 °F 93% 29.94 in 3.0 mi Calm Calm - N/A   Clear
4:14 AM 71.6 °F - 69.8 °F 94% 29.95 in 2.5 mi Calm Calm - N/A   Clear
4:23 AM 71.6 °F - 69.8 °F 94% 29.96 in 3.0 mi Calm Calm - N/A   Scattered Clouds
4:53 AM 72.0 °F - 71.1 °F 97% 29.95 in 4.0 mi Calm Calm - N/A   Overcast
5:53 AM 73.9 °F - 71.1 °F 91% 29.95 in 7.0 mi West 3.5 mph - N/A   Partly Cloudy
6:53 AM 72.0 °F - 71.1 °F 97% 29.97 in 2.5 mi Calm Calm - N/A   Clear
7:21 AM 73.4 °F - 71.6 °F 94% 29.99 in 3.0 mi Calm Calm - N/A   Mostly Cloudy
7:53 AM 77.0 °F - 72.0 °F 84% 29.99 in 6.0 mi West 3.5 mph - N/A   Haze
8:53 AM 81.0 °F 85.2 °F 72.0 °F 74% 29.99 in 8.0 mi NW 6.9 mph - N/A   Overcast
9:53 AM 84.0 °F 89.6 °F 72.0 °F 67% 30.00 in 9.0 mi Variable 4.6 mph - N/A   Mostly Cloudy
10:53 AM 87.1 °F 94.5 °F 73.0 °F 63% 29.99 in 10.0 mi NNW 4.6 mph - N/A   Clear
11:53 AM 89.1 °F 97.0 °F 73.0 °F 59% 29.97 in 10.0 mi NW 6.9 mph - N/A   Mostly Cloudy
12:53 PM 91.0 °F 98.2 °F 72.0 °F 53% 29.95 in 10.0 mi WNW 4.6 mph - N/A   Scattered Clouds
1:53 PM 91.9 °F 99.5 °F 72.0 °F 52% 29.93 in 10.0 mi WNW 6.9 mph - N/A   Mostly Cloudy
2:53 PM 93.0 °F 100.7 °F 72.0 °F 50% 29.90 in 10.0 mi NNW 6.9 mph - N/A   Scattered Clouds
3:53 PM 93.0 °F 100.7 °F 72.0 °F 50% 29.90 in 10.0 mi WNW 11.5 mph - N/A   Partly Cloudy
4:53 PM 91.9 °F 100.7 °F 73.0 °F 54% 29.88 in 10.0 mi Variable 5.8 mph - N/A   Partly Cloudy
5:08 PM 91.4 °F 100.1 °F 73.4 °F 55% 29.89 in 10.0 mi WNW 8.1 mph - N/A Thunderstorm Partly Cloudy
5:53 PM 81.0 °F 86.2 °F 73.9 °F 79% 29.89 in 4.0 mi NNE 17.3 mph 31.1 mph 0.02 in Rain , Thunderstorm Light Thunderstorms and Rain
5:55 PM 78.8 °F - 75.2 °F 89% 29.90 in 1.8 mi North 23.0 mph 31.1 mph 0.06 in Rain , Thunderstorm Thunderstorms and Rain
5:59 PM 75.2 °F - 73.4 °F 94% 29.91 in 0.5 mi North 26.5 mph 34.5 mph 0.29 in Fog , Rain , Thunderstorm Heavy Thunderstorms and Rain
6:11 PM 78.8 °F - 71.6 °F 78% 29.90 in 0.2 mi NW 16.1 mph 50.6 mph 0.97 in Rain , Thunderstorm Heavy Thunderstorms and Rain
6:19 PM 77.0 °F - 71.6 °F 83% 29.89 in 2.0 mi WNW 8.1 mph 26.5 mph 0.97 in Rain , Thunderstorm Light Thunderstorms and Rain
6:23 PM 77.0 °F - 71.6 °F 83% 29.90 in 10.0 mi NW 4.6 mph - 0.97 in Thunderstorm Thunderstorm
6:50 PM 75.2 °F - 73.4 °F 94% 29.89 in 9.0 mi Calm Calm - 0.97 in   Clear
6:53 PM 75.0 °F - 73.0 °F 94% 29.89 in 10.0 mi Calm Calm - 0.97 in   Clear
7:06 PM 75.2 °F - 73.4 °F 94% 29.91 in 5.0 mi Calm Calm - N/A Thunderstorm Clear
7:37 PM 75.2 °F - 73.4 °F 94% 29.91 in 8.0 mi Calm Calm - N/A   Clear
7:53 PM 75.9 °F - 75.0 °F 97% 29.89 in 7.0 mi Calm Calm - N/A   Clear
8:53 PM 77.0 °F - 73.9 °F 90% 29.91 in 7.0 mi Calm Calm - N/A   Partly Cloudy
9:53 PM 77.0 °F - 73.9 °F 90% 29.92 in 9.0 mi East 3.5 mph - N/A   Scattered Clouds
10:39 PM 77.0 °F - 73.4 °F 89% 29.93 in 8.0 mi Calm Calm - N/A Thunderstorm Thunderstorm
10:53 PM 77.0 °F - 75.0 °F 94% 29.92 in 6.0 mi Calm Calm - N/A   Mostly Cloudy
11:17 PM 75.2 °F - 73.4 °F 94% 29.94 in 2.5 mi NNE 4.6 mph - 0.11 in Rain , Thunderstorm Thunderstorms and Rain
11:23 PM 75.2 °F - 73.4 °F 94% 29.94 in 1.0 mi Calm Calm - 0.24 in Rain , Thunderstorm Heavy Thunderstorms and Rain
11:29 PM 75.2 °F - 73.4 °F 94% 29.94 in 1.0 mi NW 5.8 mph - 0.29 in Rain , Thunderstorm Heavy Thunderstorms and Rain
11:35 PM 75.2 °F - 73.4 °F 94% 29.93 in 3.0 mi WSW 3.5 mph - 0.29 in Rain , Thunderstorm Light Thunderstorms and Rain
11:53 PM 75.9 °F - 73.9 °F 94% 29.91 in 6.0 mi Calm Calm - 0.29 in Thunderstorm Mostly Cloudy